DW8231 Weather Reports


time (UTC)temp
F
wind
direction
speed
knots
gust
knots
rain 1hr
in
rain 24hr
in
rain mn
in
humidity
%
barometer
mb
20260504050545 56 198 0.9 4.3 0.00 0.00 0.00 42 1000.6
20260504045042 57 198 1.7 5.2 0.00 0.00 0.00 41 1000.9
20260504044542 57 208 0.9 3.5 0.00 0.00 0.00 40 1001.0
20260504044041 57 208 0.9 3.5 0.00 0.00 0.00 40 1001.1
20260504043541 57 208 0.9 3.5 0.00 0.00 0.00 39 1001.2
20260504043043 58 208 0.9 5.2 0.00 0.00 0.00 39 1001.3
20260504042539 58 208 1.7 5.2 0.00 0.00 0.00 38 1001.3
20260504042038 58 265 0.0 1.7 0.00 0.00 0.00 37 1001.4
20260504041538 59 265 0.0 1.7 0.00 0.00 0.00 37 1001.5
20260504041038 59 265 0.9 1.7 0.00 0.00 0.00 37 1001.6
20260504040537 59 265 0.0 2.6 0.00 0.00 0.00 37 1001.7
20260504040036 59 265 0.0 2.6 0.00 0.00 0.00 37 1001.8
20260504035038 59 265 0.0 2.6 0.00 0.00 0.00 36 1002.0
20260504034536 59 265 0.9 2.6 0.00 0.00 0.00 36 1002.1
20260504034035 59 265 0.0 2.6 0.00 0.00 0.00 36 1002.1
20260504033535 59 265 0.0 2.6 0.00 0.00 0.00 36 1002.2
20260504033035 60 265 0.0 1.7 0.00 0.00 0.00 36 1002.3
20260504032534 60 265 0.0 1.7 0.00 0.00 0.00 36 1002.3
20260504032036 60 265 0.0 2.6 0.00 0.00 0.00 36 1002.4
20260504031534 60 265 0.0 2.6 0.00 0.00 0.00 36 1002.5
20260504031032 60 265 0.9 1.7 0.00 0.00 0.00 36 1002.5
20260504030531 60 265 0.0 1.7 0.00 0.00 0.00 36 1002.5
20260504030031 61 265 0.0 2.6 0.00 0.00 0.00 35 1002.5
20260504025031 61 265 0.9 3.5 0.00 0.00 0.00 35 1002.6
20260504024534 61 265 0.9 3.5 0.00 0.00 0.00 35 1002.6
20260504024033 61 265 0.9 3.5 0.00 0.00 0.00 35 1002.6
20260504023530 61 265 0.9 2.6 0.00 0.00 0.00 35 1002.6
20260504023034 61 265 0.9 5.2 0.00 0.00 0.00 35 1002.6
20260504022533 61 265 1.7 5.2 0.00 0.00 0.00 35 1002.6
20260504022031 62 266 0.9 2.6 0.00 0.00 0.00 35 1002.6
20260504021529 62 266 0.9 2.6 0.00 0.00 0.00 35 1002.6
20260504021030 62 266 0.9 2.6 0.00 0.00 0.00 35 1002.6
20260504020529 62 266 0.0 3.5 0.00 0.00 0.00 35 1002.6
20260504020029 62 266 0.9 3.5 0.00 0.00 0.00 34 1002.5
20260504015029 63 266 0.9 3.5 0.00 0.00 0.00 34 1002.6
20260504014538 63 266 0.9 3.5 0.00 0.00 0.00 34 1002.7
20260504014028 63 266 0.9 6.1 0.00 0.00 0.00 33 1002.7
20260504013528 64 266 0.9 6.1 0.00 0.00 0.00 33 1002.7
20260504013036 64 268 0.9 3.5 0.00 0.00 0.00 32 1002.7
20260504012528 64 268 0.9 3.5 0.00 0.00 0.00 32 1002.7
20260504012028 65 268 0.0 3.5 0.00 0.00 0.00 32 1002.7
20260504011527 65 268 0.9 5.2 0.00 0.00 0.00 32 1002.7
20260504011026 65 269 0.9 5.2 0.00 0.00 0.00 31 1002.8
20260504010528 65 269 0.9 5.2 0.00 0.00 0.00 30 1002.8
20260504010026 66 269 0.9 6.1 0.00 0.00 0.00 30 1002.8
20260504005027 66 269 1.7 7.0 0.00 0.00 0.00 31 1002.8
20260504004532 66 269 3.5 7.0 0.00 0.00 0.00 29 1002.8
20260504004026 66 277 1.7 7.0 0.00 0.00 0.00 30 1002.8
20260504003526 66 258 0.9 7.8 0.00 0.00 0.00 30 1002.8
20260504003026 66 259 1.7 7.8 0.00 0.00 0.00 29 1002.9
20260504002526 67 247 3.5 7.0 0.00 0.00 0.00 28 1002.9
20260504002026 67 249 3.5 7.0 0.00 0.00 0.00 29 1003.0
20260504001526 67 263 4.3 7.8 0.00 0.00 0.00 28 1003.1
20260504001026 68 267 1.7 10.4 0.00 0.00 0.00 28 1003.1
20260504000529 68 261 4.3 10.4 0.00 0.00 0.00 26 1003.0
20260504000026 68 242 3.5 10.4 0.00 0.00 0.00 26 1003.0
20260503235027 69 259 5.2 8.7 0.00 0.00 0.00 24 1003.0
20260503234527 68 227 2.6 8.7 0.00 0.00 0.00 27 1003.0
20260503234028 69 275 2.6 10.4 0.00 0.00 0.00 26 1003.0
20260503233524 69 271 2.6 11.3 0.00 0.00 0.00 25 1003.1
20260503233024 69 265 3.5 10.4 0.00 0.00 0.00 25 1003.2
20260503232524 69 299 3.5 11.3 0.00 0.00 0.00 24 1003.2
20260503232027 69 253 4.3 11.3 0.00 0.00 0.00 25 1003.2
20260503231524 69 284 4.3 9.6 0.00 0.00 0.00 25 1003.2
20260503231024 69 298 4.3 13.0 0.00 0.00 0.00 25 1003.2
20260503230523 70 263 6.1 13.0 0.00 0.00 0.00 25 1003.2
20260503230024 69 253 6.1 13.0 0.00 0.00 0.00 26 1003.3
20260503225024 70 301 5.2 12.2 0.00 0.00 0.00 24 1003.3
20260503224524 70 271 1.7 7.8 0.00 0.00 0.00 23 1003.3
20260503224027 70 291 1.7 10.4 0.00 0.00 0.00 22 1003.3
20260503223523 70 292 4.3 10.4 0.00 0.00 0.00 22 1003.4
20260503223023 70 286 3.5 11.3 0.00 0.00 0.00 23 1003.4
20260503222522 70 261 6.1 11.3 0.00 0.00 0.00 22 1003.4
20260503222022 70 291 3.5 9.6 0.00 0.00 0.00 23 1003.5
20260503221522 70 261 4.3 12.2 0.00 0.00 0.00 25 1003.4
20260503221023 70 290 5.2 12.2 0.00 0.00 0.00 24 1003.5
20260503220522 70 281 4.3 15.6 0.00 0.00 0.00 26 1003.5
20260503220022 70 270 5.2 15.6 0.00 0.00 0.00 25 1003.4
20260503215021 70 273 6.1 11.3 0.00 0.00 0.00 24 1003.5
20260503214521 70 286 4.3 9.6 0.00 0.00 0.00 24 1003.5
20260503214021 71 278 5.2 9.6 0.00 0.00 0.00 23 1003.5
20260503213520 70 292 2.6 10.4 0.00 0.00 0.00 23 1003.5
20260503213019 70 289 5.2 13.9 0.00 0.00 0.00 23 1003.5
20260503212519 70 286 4.3 13.9 0.00 0.00 0.00 22 1003.7
20260503212018 70 294 5.2 10.4 0.00 0.00 0.00 23 1003.7
20260503211518 70 278 4.3 14.8 0.00 0.00 0.00 24 1003.7
20260503211018 69 293 6.1 14.8 0.00 0.00 0.00 24 1003.7
20260503210522 69 284 5.2 13.9 0.00 0.00 0.00 23 1003.7
20260503210017 70 278 6.1 13.9 0.00 0.00 0.00 24 1003.6
20260503205019 70 280 4.3 11.3 0.00 0.00 0.00 25 1003.8
20260503204518 70 294 6.1 12.2 0.00 0.00 0.00 25 1003.8
20260503204018 70 285 6.1 16.5 0.00 0.00 0.00 24 1003.9
20260503203516 69 295 3.5 17.4 0.00 0.00 0.00 25 1003.9
20260503203035 70 298 10.4 17.4 0.00 0.00 0.00 25 1004.0
20260503202515 70 300 3.5 11.3 0.00 0.00 0.00 27 1004.0
20260503202015 70 293 4.3 12.2 0.00 0.00 0.00 26 1004.0
20260503201514 69 290 4.3 13.9 0.00 0.00 0.00 27 1004.1
20260503201013 69 279 6.1 14.8 0.00 0.00 0.00 26 1004.2
20260503200513 69 261 7.8 14.8 0.00 0.00 0.00 28 1004.2
20260503200013 69 292 5.2 12.2 0.00 0.00 0.00 30 1004.3
20260503195013 69 256 2.6 12.2 0.00 0.00 0.00 31 1004.3
20260503194531 69 242 5.2 17.4 0.00 0.00 0.00 29 1004.4
20260503194013 70 279 7.8 17.4 0.00 0.00 0.00 31 1004.3
20260503193513 69 287 4.3 11.3 0.00 0.00 0.00 31 1004.3
20260503193014 70 277 6.1 13.9 0.00 0.00 0.00 31 1004.4
20260503192511 70 282 5.2 11.3 0.00 0.00 0.00 31 1004.4
20260503192012 70 293 5.2 11.3 0.00 0.00 0.00 31 1004.3
20260503191511 70 271 5.2 9.6 0.00 0.00 0.00 33 1004.3
20260503191011 70 298 2.6 13.0 0.00 0.00 0.00 34 1004.2
20260503190512 70 279 4.3 13.0 0.00 0.00 0.00 34 1004.3
20260503190011 70 274 6.1 12.2 0.00 0.00 0.00 35 1004.3
20260503185012 70 299 2.6 12.2 0.00 0.00 0.00 32 1004.5
20260503184517 69 332 4.3 12.2 0.00 0.00 0.00 31 1004.5
20260503184008 69 297 3.5 13.9 0.00 0.00 0.00 32 1004.5
20260503183508 69 292 7.0 13.9 0.00 0.00 0.00 32 1004.6
20260503183008 69 291 4.3 13.0 0.00 0.00 0.00 34 1004.5
20260503182507 69 279 5.2 12.2 0.00 0.00 0.00 38 1004.5
20260503182006 69 255 5.2 13.0 0.00 0.00 0.00 38 1004.5
20260503181506 68 249 6.1 13.0 0.00 0.00 0.00 37 1004.6
20260503181005 68 288 3.5 11.3 0.00 0.00 0.00 36 1004.7
20260503180505 68 291 4.3 9.6 0.00 0.00 0.00 37 1004.8
20260503180005 68 279 4.3 11.3 0.00 0.00 0.00 36 1004.7
20260503175005 68 292 5.2 10.4 0.00 0.00 0.00 35 1005.0
20260503174505 68 294 1.7 10.4 0.00 0.00 0.00 36 1005.0
20260503174005 67 272 4.3 13.9 0.00 0.00 0.00 37 1005.0
20260503173504 67 294 5.2 13.9 0.00 0.00 0.00 37 1005.0
20260503173004 67 296 6.1 12.2 0.00 0.00 0.00 36 1005.1
20260503172503 67 294 5.2 12.2 0.00 0.00 0.00 36 1005.1
20260503172001 68 317 2.6 8.7 0.00 0.00 0.00 35 1005.1
20260503171502 68 348 3.5 7.0 0.00 0.00 0.00 36 1005.1
20260503171100 68 273 1.7 12.2 0.00 0.00 0.00 36 1005.1
20260503170559 67 280 6.1 14.8 0.00 0.00 0.00 36 1005.1
20260503150532 62 9 1.7 7.0 0.00 0.00 0.00 46 1004.9
20260503131009 55 229 1.7 5.2 0.00 0.00 0.00 53 1004.7
20260503130513 55 229 1.7 4.3 0.00 0.00 0.00 53 1004.6
20260503110548 52 178 0.9 3.5 0.00 0.00 0.00 56 1004.0
20260503081545 56 225 3.5 12.2 0.00 0.00 0.00 54 1005.1
20260503081037 55 229 3.5 12.2 0.00 0.00 0.00 54 1005.1
20260503080538 55 213 3.5 8.7 0.00 0.00 0.00 55 1005.2
20260503072535 54 191 3.5 11.3 0.00 0.00 0.00 57 1006.0
20260503072033 54 192 2.6 8.7 0.00 0.00 0.00 57 1006.0
20260503071532 54 193 3.5 9.6 0.00 0.00 0.00 58 1006.1
20260503071032 54 190 4.3 9.6 0.00 0.00 0.00 58 1006.2
20260503070531 54 195 4.3 9.6 0.00 0.00 0.00 59 1006.2